Stations météo

Publicité
Drumnadrochit, Grande-Bretagne (99132): Température de l'air & dewpoint: 20.09.2017 12:00:00 - 26.09.2017 12:00:00 (BST)Drumnadrochit, Grande-Bretagne (99132): Quantités de précipitations: 20.09.2017 12:00:00 - 26.09.2017 12:00:00 (BST)
Date & Time tt [°C] td [°C] rr [mm]
26.09.2017 12:00:00 - - -
26.09.2017 11:00:00 11,3 11,3 0,0
26.09.2017 10:00:00 9,4 9,4 0,0
26.09.2017 09:00:00 7,9 7,9 0,0
26.09.2017 08:00:00 7,5 7,4 0,0
26.09.2017 07:00:00 6,8 6,8 0,0
26.09.2017 06:00:00 6,8 6,8 0,0
26.09.2017 05:00:00 6,1 6,1 0,0
26.09.2017 04:00:00 6,8 6,8 0,0
26.09.2017 03:00:00 6,7 6,7 0,0
26.09.2017 02:00:00 6,5 6,5 0,0
26.09.2017 01:00:00 6,0 6,0 0,0
26.09.2017 00:00:00 6,4 6,3 0,0
25.09.2017 23:00:00 7,3 7,3 0,0
25.09.2017 22:00:00 7,7 7,6 0,0
25.09.2017 21:00:00 8,5 8,1 0,0
25.09.2017 20:00:00 9,9 9,2 0,0
25.09.2017 19:00:00 13,0 12,0 0,0
25.09.2017 18:00:00 15,4 14,2 0,0
25.09.2017 17:00:00 15,9 14,1 0,0
25.09.2017 16:00:00 16,6 11,6 0,2
25.09.2017 15:00:00 15,9 13,0 0,0
25.09.2017 14:00:00 15,6 13,0 0,0
25.09.2017 13:00:00 15,0 13,2 0,0
25.09.2017 12:00:00 14,6 13,0 0,0
25.09.2017 11:00:00 13,4 13,1 0,0
25.09.2017 10:00:00 12,4 12,4 0,0
25.09.2017 09:00:00 11,9 11,9 0,0
25.09.2017 08:00:00 11,7 11,7 0,0
25.09.2017 07:00:00 11,8 11,8 0,2
25.09.2017 06:00:00 11,9 11,9 2,0
25.09.2017 05:00:00 11,8 11,8 0,0
25.09.2017 04:00:00 11,8 11,8 0,4
25.09.2017 03:00:00 11,8 11,8 1,4
25.09.2017 02:00:00 11,9 11,9 1,0
25.09.2017 01:00:00 11,6 11,5 0,0
25.09.2017 00:00:00 11,8 11,8 0,0
24.09.2017 23:00:00 11,6 11,6 0,0
24.09.2017 22:00:00 11,6 11,4 0,0
24.09.2017 21:00:00 12,1 11,9 0,2
24.09.2017 20:00:00 12,3 11,9 0,2
24.09.2017 19:00:00 12,9 12,2 0,4
24.09.2017 18:00:00 13,5 12,3 1,0
24.09.2017 17:00:00 14,5 11,6 0,2
24.09.2017 16:00:00 15,8 10,9 0,0
24.09.2017 15:00:00 15,2 11,5 0,0
24.09.2017 14:00:00 15,6 10,4 0,0
24.09.2017 13:00:00 16,2 10,3 0,0
24.09.2017 12:00:00 15,7 11,1 0,0
24.09.2017 11:00:00 14,4 10,8 0,0
24.09.2017 10:00:00 14,4 10,6 0,2
24.09.2017 09:00:00 13,8 11,2 0,0
24.09.2017 08:00:00 14,7 10,6 0,0
24.09.2017 07:00:00 14,7 9,9 0,0
24.09.2017 06:00:00 14,9 9,5 0,0
24.09.2017 05:00:00 15,2 9,4 0,0
24.09.2017 04:00:00 15,3 9,6 0,0
24.09.2017 03:00:00 15,8 9,4 0,0
24.09.2017 02:00:00 14,8 8,3 0,0
24.09.2017 01:00:00 15,4 8,2 0,0
24.09.2017 00:00:00 15,6 7,7 0,0
23.09.2017 23:00:00 16,1 7,5 0,0
23.09.2017 22:00:00 16,3 8,3 0,0
23.09.2017 21:00:00 17,4 11,6 0,0
23.09.2017 20:00:00 16,9 12,2 0,0
23.09.2017 19:00:00 16,8 12,2 0,0
23.09.2017 18:00:00 16,8 12,1 0,0
23.09.2017 17:00:00 16,9 12,0 0,0
23.09.2017 16:00:00 16,9 11,8 0,0
23.09.2017 15:00:00 16,9 11,0 0,0
23.09.2017 14:00:00 18,0 11,1 0,0
23.09.2017 13:00:00 17,5 10,0 0,0
23.09.2017 12:00:00 16,9 10,7 0,0
23.09.2017 11:00:00 16,8 10,7 0,0
23.09.2017 10:00:00 11,7 11,1 -
23.09.2017 09:00:00 9,2 9,2 0,0
23.09.2017 08:00:00 5,5 5,4 0,0
23.09.2017 07:00:00 4,5 4,5 0,0
23.09.2017 06:00:00 4,4 4,4 0,0
23.09.2017 05:00:00 5,2 5,2 0,0
23.09.2017 04:00:00 5,1 5,1 0,0
23.09.2017 03:00:00 4,8 4,7 0,0
23.09.2017 02:00:00 6,1 6,1 0,0
23.09.2017 01:00:00 6,4 6,3 0,0
23.09.2017 00:00:00 7,3 6,9 0,0
22.09.2017 23:00:00 9,4 9,2 0,0
22.09.2017 22:00:00 8,9 8,6 0,0
22.09.2017 21:00:00 9,6 8,8 0,0
22.09.2017 20:00:00 10,2 7,2 0,0
22.09.2017 19:00:00 12,8 8,4 0,0
22.09.2017 18:00:00 13,7 8,5 0,0
22.09.2017 17:00:00 13,8 8,8 0,0
22.09.2017 16:00:00 13,2 9,2 0,2
22.09.2017 15:00:00 13,1 10,4 0,0
22.09.2017 14:00:00 13,6 8,3 0,0
22.09.2017 13:00:00 13,2 7,5 0,0
22.09.2017 12:00:00 12,3 8,5 0,0
22.09.2017 11:00:00 11,7 7,9 0,0
22.09.2017 10:00:00 10,6 9,0 0,0
22.09.2017 09:00:00 4,5 4,5 0,0
22.09.2017 08:00:00 2,5 2,5 0,0
22.09.2017 07:00:00 1,3 1,3 0,0
22.09.2017 06:00:00 1,1 1,1 0,0
22.09.2017 05:00:00 1,2 1,2 0,0
22.09.2017 04:00:00 1,0 1,0 0,0
22.09.2017 03:00:00 1,4 1,4 0,0
22.09.2017 02:00:00 2,0 2,0 0,0
22.09.2017 01:00:00 2,2 2,2 0,0
22.09.2017 00:00:00 2,7 2,5 0,0
21.09.2017 23:00:00 3,8 3,7 0,0
21.09.2017 22:00:00 5,4 5,1 0,0
21.09.2017 21:00:00 7,3 7,0 0,0
21.09.2017 20:00:00 9,1 8,7 0,0
21.09.2017 19:00:00 10,1 9,6 0,0
21.09.2017 18:00:00 11,2 9,6 0,0
21.09.2017 17:00:00 12,3 8,9 0,0
21.09.2017 16:00:00 11,5 10,1 0,2
21.09.2017 15:00:00 11,1 10,0 0,4
21.09.2017 14:00:00 10,9 9,8 0,2
21.09.2017 13:00:00 10,6 8,9 0,6
21.09.2017 12:00:00 10,3 8,9 0,6
21.09.2017 11:00:00 10,3 9,0 0,2
21.09.2017 10:00:00 9,8 9,0 0,2
21.09.2017 09:00:00 9,5 9,0 1,4
21.09.2017 08:00:00 9,4 8,6 1,6
21.09.2017 07:00:00 9,4 8,7 0,4
21.09.2017 06:00:00 9,4 9,0 0,0
21.09.2017 05:00:00 9,6 9,3 0,0
21.09.2017 04:00:00 10,0 9,5 0,8
21.09.2017 03:00:00 10,4 10,0 0,0
21.09.2017 02:00:00 10,5 10,3 0,6
21.09.2017 01:00:00 10,7 10,4 1,2
21.09.2017 00:00:00 10,8 10,6 1,0
20.09.2017 23:00:00 11,2 11,0 1,0
20.09.2017 22:00:00 11,4 11,1 2,2
20.09.2017 21:00:00 11,6 11,2 2,8
20.09.2017 20:00:00 12,1 11,3 1,0
20.09.2017 19:00:00 12,7 11,8 2,6
20.09.2017 18:00:00 13,4 12,7 1,0
20.09.2017 17:00:00 13,7 12,3 0,6
20.09.2017 16:00:00 14,7 11,9 0,0
20.09.2017 15:00:00 16,8 12,9 0,0
20.09.2017 14:00:00 18,3 12,7 0,0
20.09.2017 13:00:00 17,3 13,2 0,0
20.09.2017 12:00:00 16,7 13,4 0,0

tt = Température de l'air
td = dewpoint
rr = Quantités de précipitations

stations d'obs. à proximité